Location: Newark
(32.9167°N, 112.9667°W)
Time: 14:21:41
(UTC+00:00)

N. Korean satellite - Visible Passes

Search period start: 21 March 2019 00:00
Search period end: 31 March 2019 00:00
Orbit: 456 x 510 km, 97.2° (Epoch: 20 March)

Date Brightness Start Highest point End Pass type
(mag) Time Alt. Az. Time Alt. Az. Time Alt. Az.
21 Mar 9.4 13:00:45 10° NE 13:03:40 24° E 13:06:37 10° SSE visible
22 Mar 10.3 12:37:41 10° ENE 12:38:44 11° E 12:39:49 10° ESE visible
25 Mar 9.7 12:55:03 10° NE 12:57:48 20° E 13:00:33 10° SE visible
29 Mar 9.8 12:49:23 10° NE 12:51:52 17° E 12:54:22 10° SE visible
